Weather History for Savanna, IL

Change the Weather History Date:

Tuesday, October 8, 2013

  Actual Average (KCWI) Record (KCWI)
Temperature  
Mean Temperature 60 °F -  
Max Temperature 77 °F 66 °F 90 °F (1949)
Min Temperature 42 °F 45 °F 26 °F (1987)
Degree Days  
Heating Degree Days 6    
Growing Degree Days 10 (Base 50)    
Moisture  
Dew Point 44 °F    
Average Humidity 65    
Maximum Humidity 96    
Minimum Humidity 26    
Precipitation  
Precipitation 0.00 in - - ()
Sea Level Pressure  
Sea Level Pressure 30.12 in    
Wind  
Wind Speed 3 mph (South)    
Max Wind Speed 13 mph    
Max Gust Speed 20 mph    
Visibility 9 miles    
Events      
Averages and records for this station are not official NWS values.
T = Trace of Precipitation, MM = Missing Value Source: NWS Daily Summary

Daily Weather History Graph

Daily Weather History Graph

Search for Another Location

Airport:

Trip Planner

Search our weather history database for the weather conditions in past years. The results will help you decide how hot, cold, wet, or windy it might be!

Date:

Astronomy

Oct. 08, 2013 Rise Set
Actual Time 7:05 AM CDT 6:29 PM CDT
Civil Twilight 6:37 AM CDT 6:57 PM CDT
Nautical Twilight 6:05 AM CDT 7:29 PM CDT
Astronomical Twilight 5:32 AM CDT 8:02 PM CDT
Moon 11:03 AM CDT (10/8) 9:02 PM CDT (10/8)
Length of Visible Light 12h 20m
Length of Day
11h 24m
Waxing Crescent, 16% of the Moon is Illuminated
Oct 8
Waxing Crescent
Oct 11
First Quarter
Oct 18
Full
Oct 26
Last Quarter
Nov 3
New

Hourly Weather History & Observations

Time (CDT) Temp. Windchill Dew Point Humidity Pressure Visibility Wind Dir Wind Speed Gust Speed Precip Events Conditions
12:15 AM 46.8 °F - 44.1 °F 90% 30.09 in 10.0 mi Calm Calm - N/A   Clear
12:35 AM 46.6 °F - 44.4 °F 92% 30.09 in 10.0 mi Calm Calm - N/A   Clear
12:55 AM 46.6 °F - 44.4 °F 92% 30.09 in 10.0 mi Calm Calm - N/A   Clear
1:15 AM 46.0 °F - 44.1 °F 93% 30.09 in 10.0 mi Calm Calm - N/A   Clear
1:35 AM 45.1 °F - 43.5 °F 94% 30.10 in 7.0 mi Calm Calm - N/A   Clear
1:55 AM 46.6 °F - 45.0 °F 94% 30.10 in 10.0 mi Calm Calm - N/A   Clear
2:15 AM 45.5 °F - 43.9 °F 94% 30.10 in 10.0 mi Calm Calm - N/A   Clear
2:35 AM 45.5 °F 44.2 °F 44.1 °F 95% 30.10 in 5.0 mi NE 3.5 mph - N/A   Clear
2:55 AM 44.8 °F - 43.5 °F 95% 30.10 in 7.0 mi Calm Calm - N/A   Clear
3:15 AM 44.2 °F 42.7 °F 43.0 °F 95% 30.10 in 7.0 mi NE 3.5 mph - N/A   Clear
3:35 AM 44.2 °F - 43.0 °F 95% 30.10 in 10.0 mi Calm Calm - N/A   Clear
3:55 AM 44.8 °F - 43.7 °F 96% 30.10 in 10.0 mi Calm Calm - N/A   Clear
4:15 AM 45.1 °F - 43.9 °F 95% 30.11 in 10.0 mi Calm Calm - N/A   Clear
4:35 AM 45.1 °F - 43.0 °F 92% 30.11 in 10.0 mi Calm Calm - N/A   Clear
4:55 AM 44.6 °F - 42.8 °F 93% 30.12 in 7.0 mi Calm Calm - N/A   Clear
5:15 AM 43.0 °F - 41.4 °F 94% 30.12 in 4.0 mi Calm Calm - N/A   Clear
5:35 AM 43.2 °F - 41.9 °F 95% 30.13 in 5.0 mi Calm Calm - N/A   Clear
5:55 AM 42.8 °F - 41.5 °F 95% 30.13 in 4.0 mi Calm Calm - N/A   Clear
6:15 AM 42.8 °F - 41.5 °F 95% 30.13 in 4.0 mi Calm Calm - N/A   Clear
6:35 AM 42.8 °F - 41.5 °F 95% 30.13 in 1.2 mi Calm Calm - N/A   Mist
6:55 AM 42.3 °F - 41.0 °F 95% 30.14 in 10.0 mi Calm Calm - N/A   Clear
7:15 AM 42.1 °F - 41.0 °F 96% 30.14 in 1.0 mi Calm Calm - N/A   Mist
7:35 AM 42.8 °F - 41.4 °F 95% 30.14 in 7.0 mi Calm Calm - N/A   Clear
7:55 AM 44.8 °F - 43.7 °F 96% 30.15 in 10.0 mi Calm Calm - N/A   Clear
8:15 AM 48.2 °F - 46.8 °F 95% 30.15 in 7.0 mi Calm Calm - N/A   Clear
8:35 AM 51.1 °F - 47.5 °F 87% 30.16 in 10.0 mi Calm Calm - N/A   Clear
8:55 AM 53.8 °F - 48.4 °F 82% 30.16 in 10.0 mi SSE 4.6 mph - N/A   Clear
9:15 AM 55.8 °F - 47.8 °F 75% 30.16 in 10.0 mi SSE 4.6 mph - N/A   Clear
9:35 AM 57.9 °F - 48.4 °F 71% 30.16 in 10.0 mi SSE 3.5 mph - N/A   Clear
9:55 AM 59.5 °F - 49.5 °F 69% 30.16 in 10.0 mi South 3.5 mph - N/A   Clear
10:15 AM 62.1 °F - 48.4 °F 61% 30.16 in 10.0 mi SSW 3.5 mph - N/A   Clear
10:35 AM 63.7 °F - 48.7 °F 58% 30.16 in 10.0 mi SSW 4.6 mph - N/A   Clear
10:55 AM 65.1 °F - 49.5 °F 57% 30.16 in 10.0 mi SSW 3.5 mph - N/A   Clear
11:15 AM 67.3 °F - 48.9 °F 52% 30.15 in 10.0 mi SSW 4.6 mph - N/A   Clear
11:35 AM 69.1 °F - 48.6 °F 48% 30.15 in 10.0 mi South 5.8 mph - N/A   Clear
11:55 AM 70.9 °F - 48.2 °F 44% 30.15 in 10.0 mi South 8.1 mph - N/A   Clear
12:15 PM 71.2 °F - 46.4 °F 41% 30.14 in 10.0 mi SSW 8.1 mph - N/A   Clear
12:35 PM 72.1 °F - 47.3 °F 41% 30.14 in 10.0 mi SSW 10.4 mph - N/A   Clear
12:55 PM 74.3 °F - 45.3 °F 36% 30.13 in 10.0 mi SSW 9.2 mph - N/A   Clear
1:15 PM 75.4 °F - 44.4 °F 33% 30.12 in 10.0 mi SSW 12.7 mph 17.3 mph N/A   Clear
1:35 PM 75.6 °F - 43.7 °F 32% 30.11 in 10.0 mi SSW 12.7 mph - N/A   Clear
1:55 PM 76.1 °F - 43.2 °F 31% 30.11 in 10.0 mi SSW 10.4 mph - N/A   Clear
2:15 PM 77.0 °F - 43.5 °F 30% 30.10 in 10.0 mi SSW 10.4 mph 16.1 mph N/A   Clear
2:35 PM 77.5 °F - 41.2 °F 27% 30.10 in 10.0 mi SSW 10.4 mph 19.6 mph N/A   Clear
2:55 PM 77.9 °F - 40.6 °F 26% 30.10 in 10.0 mi SSW 11.5 mph - N/A   Clear
3:15 PM 77.7 °F - 41.2 °F 27% 30.09 in 10.0 mi SSW 9.2 mph - N/A   Clear
3:35 PM 77.5 °F - 41.9 °F 28% 30.09 in 10.0 mi SSW 10.4 mph - N/A   Clear
3:55 PM 77.7 °F - 42.4 °F 28% 30.08 in 10.0 mi SSW 6.9 mph - N/A   Clear
4:15 PM 77.7 °F - 42.1 °F 28% 30.08 in 10.0 mi SSW 6.9 mph - N/A   Clear
4:35 PM 77.7 °F - 41.4 °F 27% 30.08 in 10.0 mi South 8.1 mph - N/A   Clear
4:55 PM 77.2 °F - 41.2 °F 28% 30.08 in 10.0 mi South 10.4 mph - N/A   Clear
5:15 PM 76.3 °F - 42.3 °F 30% 30.08 in 10.0 mi South 10.4 mph - N/A   Clear
5:35 PM 75.4 °F - 41.9 °F 30% 30.08 in 10.0 mi South 9.2 mph - N/A   Clear
5:55 PM 73.6 °F - 42.6 °F 33% 30.08 in 10.0 mi South 6.9 mph - N/A   Clear
6:15 PM 70.7 °F - 43.3 °F 37% 30.08 in 10.0 mi SSE 6.9 mph - N/A   Clear
6:35 PM 67.3 °F - 43.9 °F 43% 30.09 in 10.0 mi SSE 8.1 mph - N/A   Clear
6:55 PM 64.8 °F - 44.2 °F 47% 30.09 in 10.0 mi SSE 6.9 mph - N/A   Clear
7:15 PM 63.7 °F - 44.6 °F 50% 30.09 in 10.0 mi SSE 9.2 mph - N/A   Clear
7:35 PM 63.5 °F - 44.6 °F 50% 30.09 in 10.0 mi SSE 8.1 mph - N/A   Clear
7:55 PM 63.0 °F - 44.6 °F 51% 30.10 in 10.0 mi SSE 9.2 mph - N/A   Clear
8:15 PM 63.0 °F - 44.8 °F 51% 30.10 in 10.0 mi SSE 8.1 mph - N/A   Clear
8:35 PM 61.2 °F - 45.5 °F 56% 30.11 in 10.0 mi South 5.8 mph - N/A   Clear
8:55 PM 58.6 °F - 46.0 °F 63% 30.11 in 10.0 mi South 5.8 mph - N/A   Clear
9:15 PM 59.0 °F - 45.7 °F 61% 30.11 in 10.0 mi South 3.5 mph - N/A   Clear
9:35 PM 61.0 °F - 46.0 °F 58% 30.11 in 10.0 mi Calm Calm - N/A   Clear
9:55 PM 59.4 °F - 45.9 °F 61% 30.11 in 10.0 mi South 4.6 mph - N/A   Clear
10:15 PM 58.3 °F - 45.9 °F 63% 30.12 in 10.0 mi South 4.6 mph - N/A   Clear
10:35 PM 56.5 °F - 46.6 °F 69% 30.12 in 10.0 mi Calm Calm - N/A   Clear
10:55 PM 55.2 °F - 47.1 °F 74% 30.12 in 10.0 mi SSE 3.5 mph - N/A   Clear
11:15 PM 54.5 °F - 46.4 °F 74% 30.13 in 10.0 mi Calm Calm - N/A   Clear
11:35 PM 55.4 °F - 46.4 °F 72% 30.13 in 10.0 mi South 3.5 mph - N/A   Clear
11:55 PM 54.3 °F - 46.2 °F 74% 30.13 in 10.0 mi South 3.5 mph - N/A   Clear